| time (UTC) | temp C | wind direction | speed KPH | gust KPH | rain 1hr cm | rain 24hr cm | rain mn cm | humidity % | barometer mb |
| 20260902014527 | 23 | 305 | 14.5 | 37.0 | 0.00 | 0.00 | 0.00 | 48 | 1015.2 |
| 20260902014026 | 23 | 250 | 20.9 | 30.6 | 0.00 | 0.00 | 0.00 | 47 | 1015.3 |
| 20260902013529 | 23 | 244 | 17.7 | 37.0 | 0.00 | 0.00 | 0.00 | 47 | 1015.4 |
| 20260902013024 | 23 | 277 | 17.7 | 37.0 | 0.00 | 0.00 | 0.00 | 47 | 1015.5 |
| 20260902012523 | 23 | 243 | 11.3 | 38.6 | 0.00 | 0.00 | 0.00 | 48 | 1015.6 |
| 20260902012021 | 23 | 273 | 19.3 | 37.0 | 0.00 | 0.00 | 0.00 | 47 | 1015.7 |
| 20260902011521 | 23 | 267 | 17.7 | 32.2 | 0.00 | 0.00 | 0.00 | 48 | 1015.8 |
| 20260902011021 | 22 | 243 | 8.0 | 14.5 | 0.00 | 0.00 | 0.00 | 53 | 1015.9 |
| 20260902010517 | 22 | 261 | 6.4 | 19.3 | 0.00 | 0.00 | 0.00 | 54 | 1016.1 |
| 20260902010016 | 21 | 302 | 9.7 | 20.9 | 0.00 | 0.00 | 0.00 | 54 | 1016.1 |
| 20260902005517 | 21 | 294 | 6.4 | 30.6 | 0.00 | 0.00 | 0.00 | 54 | 1016.2 |
| 20260902005015 | 21 | 250 | 9.7 | 30.6 | 0.00 | 0.00 | 0.00 | 55 | 1016.4 |
| 20260902004517 | 21 | 278 | 12.9 | 27.4 | 0.00 | 0.00 | 0.00 | 55 | 1016.4 |
| 20260902004012 | 20 | 251 | 8.0 | 29.0 | 0.00 | 0.00 | 0.00 | 56 | 1016.4 |
| 20260902003511 | 20 | 274 | 17.7 | 32.2 | 0.00 | 0.00 | 0.00 | 55 | 1016.5 |
| 20260902003010 | 20 | 240 | 14.5 | 30.6 | 0.00 | 0.00 | 0.00 | 56 | 1016.4 |
| 20260902002510 | 20 | 307 | 12.9 | 32.2 | 0.00 | 0.00 | 0.00 | 56 | 1016.5 |
| 20260902002015 | 20 | 315 | 14.5 | 32.2 | 0.00 | 0.00 | 0.00 | 56 | 1016.6 |
| 20260902001509 | 20 | 288 | 16.1 | 32.2 | 0.00 | 0.00 | 0.00 | 56 | 1016.6 |
| 20260902001009 | 20 | 256 | 12.9 | 22.5 | 0.00 | 0.00 | 0.00 | 57 | 1016.7 |
| 20260902000508 | 20 | 247 | 12.9 | 22.5 | 0.00 | 0.00 | 0.00 | 57 | 1016.9 |
| 20260902000009 | 20 | 244 | 11.3 | 20.9 | 0.00 | 0.00 | 0.00 | 57 | 1017.0 |
| 20260901235508 | 20 | 266 | 11.3 | 24.1 | 0.00 | 0.00 | 0.00 | 57 | 1017.1 |
| 20260901235007 | 20 | 251 | 12.9 | 24.1 | 0.00 | 0.00 | 0.00 | 57 | 1017.1 |
| 20260901234508 | 20 | 267 | 11.3 | 24.1 | 0.00 | 0.00 | 0.00 | 56 | 1017.0 |
| 20260901234008 | 20 | 267 | 12.9 | 24.1 | 0.00 | 0.00 | 0.00 | 56 | 1017.0 |
| 20260901233507 | 19 | 264 | 14.5 | 30.6 | 0.00 | 0.00 | 0.00 | 56 | 1017.2 |
| 20260901233007 | 19 | 278 | 14.5 | 37.0 | 0.00 | 0.00 | 0.00 | 56 | 1017.2 |
| 20260901232507 | 19 | 253 | 17.7 | 37.0 | 0.00 | 0.00 | 0.00 | 55 | 1017.2 |
| 20260901232006 | 19 | 285 | 17.7 | 30.6 | 0.00 | 0.00 | 0.00 | 55 | 1017.3 |
| 20260901231509 | 19 | 285 | 16.1 | 29.0 | 0.00 | 0.00 | 0.00 | 55 | 1017.4 |
| 20260901231007 | 19 | 298 | 16.1 | 38.6 | 0.00 | 0.00 | 0.00 | 56 | 1017.4 |
| 20260901230506 | 19 | 279 | 14.5 | 38.6 | 0.00 | 0.00 | 0.00 | 56 | 1017.5 |
| 20260901230006 | 19 | 259 | 14.5 | 29.0 | 0.00 | 0.00 | 0.00 | 56 | 1017.6 |
| 20260901225506 | 19 | 278 | 14.5 | 29.0 | 0.00 | 0.00 | 0.00 | 57 | 1017.7 |
| 20260901225007 | 19 | 247 | 14.5 | 32.2 | 0.00 | 0.00 | 0.00 | 57 | 1017.8 |
| 20260901224506 | 19 | 306 | 16.1 | 32.2 | 0.00 | 0.00 | 0.00 | 58 | 1017.7 |
| 20260901224005 | 18 | 267 | 19.3 | 30.6 | 0.00 | 0.00 | 0.00 | 59 | 1017.7 |
| 20260901223505 | 18 | 265 | 9.7 | 24.1 | 0.00 | 0.00 | 0.00 | 61 | 1017.8 |
| 20260901223013 | 19 | 313 | 11.3 | 19.3 | 0.00 | 0.00 | 0.00 | 61 | 1017.9 |
| 20260901222506 | 19 | 251 | 6.4 | 19.3 | 0.00 | 0.00 | 0.00 | 59 | 1017.9 |
| 20260901222007 | 20 | 273 | 4.8 | 20.9 | 0.00 | 0.00 | 0.00 | 59 | 1018.0 |
| 20260901221504 | 20 | 288 | 9.7 | 20.9 | 0.00 | 0.00 | 0.00 | 58 | 1018.1 |
| 20260901221004 | 20 | 46 | 6.4 | 19.3 | 0.00 | 0.00 | 0.00 | 54 | 1017.7 |
| 20260901220501 | 20 | 261 | 12.9 | 20.9 | 0.00 | 0.00 | 0.00 | 55 | 1017.9 |
| 20260901220130 | 20 | 254 | 9.7 | 20.9 | 0.00 | 0.00 | 0.00 | 56 | 1017.9 |
| 20260901215601 | 19 | 303 | 8.0 | 14.5 | 0.00 | 0.00 | 0.00 | 57 | 1017.8 |
| 20260901215101 | 19 | 232 | 6.4 | 16.1 | 0.00 | 0.00 | 0.00 | 58 | 1017.7 |
| 20260901214556 | 18 | 250 | 8.0 | 24.1 | 0.00 | 0.00 | 0.00 | 58 | 1017.7 |
| 20260901214056 | 18 | 273 | 6.4 | 24.1 | 0.00 | 0.00 | 0.00 | 59 | 1017.7 |
| 20260901213556 | 18 | 275 | 6.4 | 20.9 | 0.00 | 0.00 | 0.00 | 60 | 1017.6 |
| 20260901213116 | 18 | 297 | 9.7 | 20.9 | 0.00 | 0.00 | 0.00 | 60 | 1017.6 |
| 20260901212556 | 18 | 246 | 8.0 | 17.7 | 0.00 | 0.00 | 0.00 | 59 | 1017.5 |
| 20260901212056 | 18 | 254 | 6.4 | 19.3 | 0.00 | 0.00 | 0.00 | 59 | 1017.3 |
| 20260901211601 | 18 | 240 | 8.0 | 19.3 | 0.00 | 0.00 | 0.00 | 58 | 1017.3 |
| 20260901211056 | 18 | 286 | 6.4 | 22.5 | 0.00 | 0.00 | 0.00 | 58 | 1017.3 |
| 20260901210555 | 18 | 242 | 8.0 | 29.0 | 0.00 | 0.00 | 0.00 | 57 | 1017.2 |
| 20260901205554 | 18 | 270 | 9.7 | 32.2 | 0.00 | 0.00 | 0.00 | 57 | 1017.2 |
| 20260901205054 | 18 | 302 | 11.3 | 32.2 | 0.00 | 0.00 | 0.00 | 57 | 1017.0 |
| 20260901204559 | 18 | 292 | 14.5 | 25.7 | 0.00 | 0.00 | 0.00 | 57 | 1017.0 |
| 20260901204054 | 18 | 258 | 14.5 | 25.7 | 0.00 | 0.00 | 0.00 | 59 | 1017.1 |
| 20260901203551 | 18 | 265 | 9.7 | 20.9 | 0.00 | 0.00 | 0.00 | 59 | 1017.1 |
| 20260901203101 | 18 | 261 | 9.7 | 22.5 | 0.00 | 0.00 | 0.00 | 60 | 1017.0 |
| 20260901202551 | 18 | 270 | 11.3 | 22.5 | 0.00 | 0.00 | 0.00 | 60 | 1017.0 |
| 20260901202054 | 17 | 231 | 11.3 | 24.1 | 0.00 | 0.00 | 0.00 | 60 | 1017.0 |
| 20260901201550 | 17 | 242 | 8.0 | 24.1 | 0.00 | 0.00 | 0.00 | 61 | 1017.0 |
| 20260901201050 | 17 | 279 | 9.7 | 27.4 | 0.00 | 0.00 | 0.00 | 61 | 1016.7 |
| 20260901200549 | 17 | 230 | 11.3 | 27.4 | 0.00 | 0.00 | 0.00 | 61 | 1016.7 |
| 20260901200049 | 17 | 256 | 11.3 | 20.9 | 0.00 | 0.00 | 0.00 | 62 | 1016.7 |
| 20260901195549 | 17 | 266 | 9.7 | 20.9 | 0.00 | 0.00 | 0.00 | 63 | 1016.7 |
| 20260901195051 | 17 | 238 | 9.7 | 19.3 | 0.00 | 0.00 | 0.00 | 64 | 1016.6 |
| 20260901194551 | 17 | 234 | 9.7 | 17.7 | 0.00 | 0.00 | 0.00 | 64 | 1016.5 |
| 20260901194050 | 17 | 250 | 6.4 | 17.7 | 0.00 | 0.00 | 0.00 | 64 | 1016.4 |
| 20260901193549 | 17 | 284 | 9.7 | 17.7 | 0.00 | 0.00 | 0.00 | 64 | 1016.5 |
| 20260901193053 | 16 | 241 | 8.0 | 17.7 | 0.00 | 0.00 | 0.00 | 65 | 1016.5 |
| 20260901192547 | 16 | 263 | 6.4 | 14.5 | 0.00 | 0.00 | 0.00 | 65 | 1016.3 |
| 20260901192054 | 16 | 257 | 6.4 | 14.5 | 0.00 | 0.00 | 0.00 | 66 | 1016.3 |
| 20260901191548 | 16 | 264 | 6.4 | 14.5 | 0.00 | 0.00 | 0.00 | 66 | 1016.3 |
| 20260901191050 | 16 | 281 | 6.4 | 14.5 | 0.00 | 0.00 | 0.00 | 66 | 1016.3 |
| 20260901190546 | 16 | 256 | 6.4 | 17.7 | 0.00 | 0.00 | 0.00 | 66 | 1016.2 |
| 20260901190046 | 16 | 266 | 8.0 | 19.3 | 0.00 | 0.00 | 0.00 | 65 | 1016.2 |
| 20260901185545 | 17 | 271 | 8.0 | 20.9 | 0.00 | 0.00 | 0.00 | 65 | 1016.2 |
| 20260901185047 | 17 | 275 | 11.3 | 20.9 | 0.00 | 0.00 | 0.00 | 64 | 1016.3 |
| 20260901184548 | 17 | 247 | 9.7 | 24.1 | 0.00 | 0.00 | 0.00 | 63 | 1016.3 |
| 20260901184046 | 17 | 281 | 9.7 | 24.1 | 0.00 | 0.00 | 0.00 | 61 | 1016.2 |
| 20260901183545 | 18 | 243 | 14.5 | 25.7 | 0.00 | 0.00 | 0.00 | 60 | 1016.2 |
| 20260901183050 | 18 | 275 | 14.5 | 29.0 | 0.00 | 0.00 | 0.00 | 60 | 1016.2 |
| 20260901182548 | 17 | 276 | 16.1 | 24.1 | 0.00 | 0.00 | 0.00 | 62 | 1016.2 |
| 20260901182044 | 17 | 249 | 16.1 | 29.0 | 0.00 | 0.00 | 0.00 | 62 | 1016.3 |
| 20260901181547 | 17 | 278 | 14.5 | 29.0 | 0.00 | 0.00 | 0.00 | 63 | 1016.3 |
| 20260901181044 | 17 | 263 | 14.5 | 25.7 | 0.00 | 0.00 | 0.00 | 65 | 1016.3 |
| 20260901180543 | 16 | 284 | 11.3 | 24.1 | 0.00 | 0.00 | 0.00 | 66 | 1016.3 |
| 20260901180041 | 16 | 242 | 8.0 | 19.3 | 0.00 | 0.00 | 0.00 | 67 | 1016.3 |
| 20260901175540 | 16 | 254 | 9.7 | 19.3 | 0.00 | 0.00 | 0.00 | 67 | 1016.4 |
| 20260901175040 | 16 | 277 | 8.0 | 19.3 | 0.00 | 0.00 | 0.00 | 66 | 1016.4 |
| 20260901174539 | 16 | 246 | 6.4 | 16.1 | 0.00 | 0.00 | 0.00 | 66 | 1016.5 |
| 20260901174040 | 16 | 260 | 6.4 | 14.5 | 0.00 | 0.00 | 0.00 | 66 | 1016.5 |
| 20260901173546 | 16 | 269 | 4.8 | 14.5 | 0.00 | 0.00 | 0.00 | 65 | 1016.6 |
| 20260901173051 | 17 | 269 | 4.8 | 12.9 | 0.00 | 0.00 | 0.00 | 65 | 1016.5 |
| 20260901172539 | 17 | 300 | 4.8 | 14.5 | 0.00 | 0.00 | 0.00 | 65 | 1016.5 |
| 20260901172040 | 17 | 317 | 6.4 | 19.3 | 0.00 | 0.00 | 0.00 | 65 | 1016.5 |
| 20260901171540 | 17 | 273 | 4.8 | 19.3 | 0.00 | 0.00 | 0.00 | 64 | 1016.5 |
| 20260901171036 | 17 | 277 | 4.8 | 19.3 | 0.00 | 0.00 | 0.00 | 64 | 1016.6 |
| 20260901170536 | 17 | 271 | 6.4 | 20.9 | 0.00 | 0.00 | 0.00 | 64 | 1016.6 |
| 20260901170034 | 17 | 310 | 8.0 | 20.9 | 0.00 | 0.00 | 0.00 | 64 | 1016.6 |
| 20260901165535 | 17 | 245 | 8.0 | 19.3 | 0.00 | 0.03 | 0.00 | 63 | 1016.7 |
| 20260901165037 | 17 | 271 | 8.0 | 19.3 | 0.00 | 0.03 | 0.00 | 63 | 1016.7 |
| 20260901164534 | 17 | 259 | 9.7 | 20.9 | 0.00 | 0.03 | 0.00 | 62 | 1016.8 |
| 20260901164033 | 17 | 263 | 9.7 | 24.1 | 0.00 | 0.03 | 0.00 | 62 | 1016.8 |
| 20260901163533 | 17 | 240 | 12.9 | 22.5 | 0.00 | 0.03 | 0.00 | 62 | 1016.7 |
| 20260901163033 | 17 | 241 | 11.3 | 24.1 | 0.00 | 0.03 | 0.00 | 62 | 1016.9 |
| 20260901162532 | 17 | 254 | 14.5 | 22.5 | 0.00 | 0.03 | 0.00 | 62 | 1016.9 |
| 20260901162032 | 17 | 254 | 11.3 | 22.5 | 0.00 | 0.03 | 0.00 | 62 | 1017.0 |
| 20260901161535 | 17 | 293 | 12.9 | 22.5 | 0.00 | 0.03 | 0.00 | 63 | 1017.0 |
| 20260901161031 | 17 | 292 | 8.0 | 17.7 | 0.00 | 0.03 | 0.00 | 64 | 1017.0 |
| 20260901160528 | 17 | 280 | 8.0 | 17.7 | 0.00 | 0.03 | 0.00 | 64 | 1017.1 |
| 20260901160031 | 17 | 238 | 9.7 | 17.7 | 0.00 | 0.03 | 0.00 | 64 | 1017.2 |
| 20260901155528 | 17 | 294 | 6.4 | 17.7 | 0.00 | 0.03 | 0.00 | 64 | 1017.2 |
| 20260901155030 | 17 | 307 | 8.0 | 17.7 | 0.00 | 0.03 | 0.00 | 65 | 1017.4 |
| 20260901154527 | 17 | 242 | 6.4 | 16.1 | 0.00 | 0.03 | 0.00 | 65 | 1017.4 |
| 20260901154026 | 17 | 257 | 4.8 | 16.1 | 0.00 | 0.03 | 0.00 | 66 | 1017.5 |
| 20260901153525 | 16 | 284 | 8.0 | 16.1 | 0.00 | 0.03 | 0.00 | 67 | 1017.6 |
| 20260901153031 | 16 | 267 | 4.8 | 14.5 | 0.00 | 0.03 | 0.00 | 68 | 1017.8 |
| 20260901152522 | 16 | 292 | 4.8 | 11.3 | 0.00 | 0.03 | 0.00 | 69 | 1017.9 |
| 20260901152022 | 16 | 277 | 3.2 | 8.0 | 0.00 | 0.03 | 0.00 | 70 | 1018.0 |
| 20260901151521 | 15 | 242 | 1.6 | 9.7 | 0.00 | 0.03 | 0.00 | 70 | 1018.0 |
| 20260901151021 | 15 | 271 | 1.6 | 4.8 | 0.00 | 0.03 | 0.00 | 71 | 1018.1 |
| 20260901150519 | 15 | 327 | 0.0 | 4.8 | 0.00 | 0.03 | 0.00 | 71 | 1018.2 |
| 20260901150019 | 15 | 294 | 0.0 | 4.8 | 0.00 | 0.03 | 0.00 | 71 | 1018.2 |
| 20260901145519 | 15 | 294 | 0.0 | 3.2 | 0.00 | 0.03 | 0.00 | 70 | 1018.2 |
| 20260901145018 | 15 | 293 | 0.0 | 0.0 | 0.00 | 0.03 | 0.00 | 70 | 1018.2 |
| 20260901144519 | 16 | 293 | 0.0 | 0.0 | 0.00 | 0.03 | 0.00 | 69 | 1018.2 |
| 20260901144014 | 16 | 293 | 0.0 | 0.0 | 0.00 | 0.03 | 0.00 | 68 | 1018.2 |
| 20260901143513 | 16 | 293 | 0.0 | 3.2 | 0.00 | 0.03 | 0.00 | 66 | 1018.2 |
| 20260901143011 | 16 | 293 | 0.0 | 4.8 | 0.00 | 0.03 | 0.00 | 65 | 1018.1 |
| 20260901142510 | 17 | 293 | 1.6 | 8.0 | 0.00 | 0.03 | 0.00 | 64 | 1018.1 |
| 20260901142009 | 17 | 294 | 0.0 | 8.0 | 0.00 | 0.03 | 0.00 | 64 | 1018.1 |
| 20260901141508 | 17 | 308 | 1.6 | 6.4 | 0.00 | 0.03 | 0.00 | 63 | 1018.1 |
| 20260901141007 | 17 | 296 | 3.2 | 8.0 | 0.00 | 0.03 | 0.00 | 62 | 1018.0 |
| 20260901140506 | 17 | 290 | 1.6 | 8.0 | 0.00 | 0.03 | 0.00 | 61 | 1018.1 |
| 20260901140006 | 17 | 304 | 1.6 | 8.0 | 0.00 | 0.03 | 0.00 | 61 | 1018.1 |
| 20260901135504 | 18 | 259 | 3.2 | 12.9 | 0.00 | 0.03 | 0.03 | 61 | 1018.2 |
| 20260901135004 | 18 | 269 | 1.6 | 12.9 | 0.00 | 0.03 | 0.03 | 60 | 1018.3 |
| 20260901134503 | 18 | 304 | 1.6 | 11.3 | 0.00 | 0.03 | 0.03 | 60 | 1018.5 |
| 20260901134002 | 18 | 245 | 3.2 | 12.9 | 0.00 | 0.03 | 0.03 | 60 | 1018.5 |
| 20260901133502 | 18 | 265 | 3.2 | 14.5 | 0.00 | 0.03 | 0.03 | 60 | 1018.5 |
| 20260901133003 | 18 | 288 | 4.8 | 14.5 | 0.00 | 0.03 | 0.03 | 59 | 1018.5 |
| 20260901132503 | 18 | 253 | 4.8 | 17.7 | 0.00 | 0.03 | 0.03 | 59 | 1018.6 |
| 20260901132002 | 18 | 278 | 4.8 | 17.7 | 0.00 | 0.03 | 0.03 | 59 | 1018.5 |
| 20260901131500 | 18 | 280 | 6.4 | 16.1 | 0.00 | 0.03 | 0.03 | 58 | 1018.5 |
| 20260901131100 | 18 | 250 | 4.8 | 17.7 | 0.00 | 0.03 | 0.03 | 58 | 1018.6 |
| 20260901130600 | 18 | 287 | 9.7 | 19.3 | 0.00 | 0.03 | 0.03 | 58 | 1018.7 |
| 20260901130059 | 18 | 243 | 4.8 | 19.3 | 0.00 | 0.03 | 0.03 | 58 | 1018.8 |
| 20260901125602 | 18 | 284 | 4.8 | 14.5 | 0.00 | 0.03 | 0.03 | 58 | 1018.9 |
| 20260901125101 | 19 | 267 | 4.8 | 20.9 | 0.00 | 0.03 | 0.03 | 57 | 1019.0 |
| 20260901124557 | 19 | 251 | 11.3 | 22.5 | 0.00 | 0.03 | 0.03 | 57 | 1019.2 |
| 20260901124059 | 19 | 247 | 9.7 | 22.5 | 0.00 | 0.03 | 0.03 | 57 | 1019.2 |
| 20260901123557 | 18 | 277 | 9.7 | 22.5 | 0.00 | 0.03 | 0.03 | 57 | 1019.4 |
| 20260901123057 | 18 | 254 | 11.3 | 22.5 | 0.00 | 0.03 | 0.03 | 57 | 1019.5 |
| 20260901122557 | 18 | 297 | 11.3 | 22.5 | 0.00 | 0.03 | 0.03 | 57 | 1019.5 |
| 20260901122056 | 18 | 269 | 8.0 | 22.5 | 0.00 | 0.03 | 0.03 | 57 | 1019.5 |
| 20260901121556 | 19 | 268 | 9.7 | 24.1 | 0.00 | 0.03 | 0.03 | 57 | 1019.6 |
| 20260901121056 | 19 | 300 | 9.7 | 24.1 | 0.00 | 0.03 | 0.03 | 57 | 1019.7 |
| 20260901120558 | 19 | 286 | 9.7 | 19.3 | 0.00 | 0.03 | 0.03 | 57 | 1019.7 |
| 20260901120057 | 19 | 260 | 9.7 | 20.9 | 0.00 | 0.03 | 0.03 | 57 | 1019.7 |
| 20260901115555 | 19 | 295 | 9.7 | 20.9 | 0.00 | 0.03 | 0.03 | 57 | 1019.8 |
| 20260901115055 | 19 | 286 | 11.3 | 24.1 | 0.00 | 0.03 | 0.03 | 57 | 1019.8 |
| 20260901114556 | 19 | 281 | 12.9 | 24.1 | 0.00 | 0.03 | 0.03 | 57 | 1019.9 |
| 20260901114055 | 19 | 305 | 9.7 | 20.9 | 0.00 | 0.03 | 0.03 | 57 | 1019.9 |
| 20260901113559 | 19 | 238 | 12.9 | 20.9 | 0.00 | 0.03 | 0.03 | 57 | 1019.8 |
| 20260901113056 | 19 | 267 | 9.7 | 20.9 | 0.00 | 0.03 | 0.03 | 57 | 1019.8 |
| 20260901112554 | 19 | 279 | 11.3 | 17.7 | 0.00 | 0.03 | 0.03 | 57 | 1019.8 |
| 20260901112055 | 19 | 265 | 9.7 | 17.7 | 0.00 | 0.03 | 0.03 | 57 | 1019.8 |
| 20260901111555 | 19 | 257 | 6.4 | 16.1 | 0.00 | 0.03 | 0.03 | 57 | 1019.9 |
| 20260901111055 | 19 | 267 | 8.0 | 19.3 | 0.00 | 0.03 | 0.03 | 57 | 1019.8 |
| 20260901110554 | 19 | 263 | 8.0 | 19.3 | 0.00 | 0.03 | 0.03 | 57 | 1019.9 |
| 20260901110058 | 19 | 275 | 8.0 | 17.7 | 0.00 | 0.03 | 0.03 | 57 | 1019.9 |
| 20260901105554 | 19 | 268 | 9.7 | 17.7 | 0.00 | 0.03 | 0.03 | 57 | 1019.9 |
| 20260901105056 | 18 | 262 | 8.0 | 14.5 | 0.00 | 0.03 | 0.03 | 58 | 1019.9 |
| 20260901104556 | 18 | 265 | 4.8 | 12.9 | 0.00 | 0.03 | 0.03 | 58 | 1019.9 |
| 20260901104054 | 18 | 269 | 4.8 | 12.9 | 0.00 | 0.03 | 0.03 | 57 | 1019.9 |
| 20260901103552 | 19 | 246 | 4.8 | 11.3 | 0.00 | 0.03 | 0.03 | 57 | 1019.8 |
| 20260901103053 | 19 | 264 | 3.2 | 14.5 | 0.00 | 0.03 | 0.03 | 57 | 1019.8 |
| 20260901102553 | 19 | 248 | 4.8 | 14.5 | 0.00 | 0.03 | 0.03 | 57 | 1019.7 |
| 20260901102053 | 19 | 277 | 4.8 | 12.9 | 0.00 | 0.03 | 0.03 | 57 | 1019.8 |
| 20260901101556 | 19 | 244 | 6.4 | 12.9 | 0.00 | 0.03 | 0.03 | 57 | 1019.8 |
| 20260901101052 | 19 | 239 | 4.8 | 12.9 | 0.00 | 0.03 | 0.03 | 56 | 1019.8 |
| 20260901100552 | 20 | 271 | 4.8 | 11.3 | 0.00 | 0.03 | 0.03 | 56 | 1019.9 |
| 20260901100053 | 20 | 268 | 4.8 | 11.3 | 0.00 | 0.03 | 0.03 | 55 | 1020.0 |
| 20260901095552 | 20 | 281 | 4.8 | 8.0 | 0.00 | 0.03 | 0.03 | 55 | 1020.0 |
| 20260901095051 | 20 | 273 | 3.2 | 8.0 | 0.00 | 0.03 | 0.03 | 55 | 1020.0 |
| 20260901094552 | 20 | 269 | 3.2 | 11.3 | 0.00 | 0.03 | 0.03 | 55 | 1020.0 |
| 20260901094052 | 20 | 290 | 3.2 | 11.3 | 0.00 | 0.03 | 0.03 | 55 | 1020.0 |
| 20260901093550 | 20 | 271 | 4.8 | 12.9 | 0.00 | 0.03 | 0.03 | 54 | 1020.0 |
| 20260901093054 | 20 | 283 | 4.8 | 12.9 | 0.00 | 0.03 | 0.03 | 54 | 1019.9 |
| 20260901092551 | 20 | 300 | 4.8 | 12.9 | 0.00 | 0.03 | 0.03 | 54 | 1019.9 |
| 20260901092053 | 20 | 279 | 3.2 | 12.9 | 0.00 | 0.03 | 0.03 | 54 | 1019.9 |
| 20260901091554 | 20 | 283 | 4.8 | 12.9 | 0.00 | 0.03 | 0.03 | 53 | 1019.9 |
| 20260901091053 | 20 | 290 | 3.2 | 12.9 | 0.00 | 0.03 | 0.03 | 53 | 1019.8 |
| 20260901090549 | 20 | 244 | 3.2 | 11.3 | 0.00 | 0.03 | 0.03 | 53 | 1019.8 |
| 20260901090049 | 20 | 231 | 4.8 | 16.1 | 0.00 | 0.03 | 0.03 | 53 | 1019.8 |
| 20260901085550 | 20 | 291 | 4.8 | 16.1 | 0.00 | 0.03 | 0.03 | 52 | 1019.8 |
| 20260901085049 | 21 | 281 | 6.4 | 19.3 | 0.00 | 0.03 | 0.03 | 52 | 1019.7 |
| 20260901084549 | 21 | 275 | 6.4 | 16.1 | 0.00 | 0.03 | 0.03 | 52 | 1019.8 |
| 20260901084049 | 21 | 287 | 8.0 | 17.7 | 0.00 | 0.03 | 0.03 | 52 | 1019.7 |
| 20260901083549 | 21 | 278 | 4.8 | 16.1 | 0.00 | 0.03 | 0.03 | 51 | 1019.7 |
| 20260901083049 | 21 | 279 | 4.8 | 16.1 | 0.00 | 0.03 | 0.03 | 51 | 1019.7 |
| 20260901082548 | 21 | 303 | 6.4 | 16.1 | 0.00 | 0.03 | 0.03 | 50 | 1019.7 |
| 20260901082048 | 21 | 289 | 3.2 | 16.1 | 0.00 | 0.03 | 0.03 | 50 | 1019.6 |
| 20260901081553 | 21 | 254 | 4.8 | 14.5 | 0.00 | 0.03 | 0.03 | 50 | 1019.6 |
| 20260901081048 | 21 | 286 | 6.4 | 14.5 | 0.00 | 0.03 | 0.03 | 49 | 1019.6 |
| 20260901080551 | 21 | 276 | 6.4 | 14.5 | 0.00 | 0.03 | 0.03 | 49 | 1019.5 |
| 20260901080047 | 21 | 281 | 6.4 | 14.5 | 0.00 | 0.03 | 0.03 | 49 | 1019.4 |
| 20260901075548 | 22 | 324 | 6.4 | 17.7 | 0.00 | 0.03 | 0.03 | 48 | 1019.3 |
| 20260901075047 | 22 | 293 | 8.0 | 22.5 | 0.00 | 0.03 | 0.03 | 48 | 1019.3 |
| 20260901074547 | 22 | 256 | 6.4 | 22.5 | 0.00 | 0.03 | 0.03 | 47 | 1019.2 |
| 20260901074046 | 22 | 250 | 6.4 | 22.5 | 0.00 | 0.03 | 0.03 | 47 | 1019.2 |
| 20260901073546 | 22 | 263 | 11.3 | 19.3 | 0.00 | 0.03 | 0.03 | 47 | 1019.1 |
| 20260901073047 | 22 | 236 | 8.0 | 20.9 | 0.00 | 0.03 | 0.03 | 47 | 1019.1 |
| 20260901072546 | 22 | 285 | 8.0 | 20.9 | 0.00 | 0.03 | 0.03 | 46 | 1019.0 |
| 20260901072045 | 23 | 253 | 11.3 | 19.3 | 0.00 | 0.03 | 0.03 | 46 | 1019.1 |
| 20260901071546 | 23 | 259 | 9.7 | 19.3 | 0.00 | 0.03 | 0.03 | 46 | 1019.1 |
| 20260901071045 | 23 | 266 | 6.4 | 14.5 | 0.00 | 0.03 | 0.03 | 45 | 1019.1 |
| 20260901070545 | 23 | 278 | 3.2 | 17.7 | 0.00 | 0.03 | 0.03 | 45 | 1019.1 |
| 20260901070045 | 23 | 256 | 4.8 | 17.7 | 0.00 | 0.03 | 0.03 | 44 | 1019.1 |
| 20260901065545 | 23 | 261 | 4.8 | 17.7 | 0.00 | 0.03 | 0.03 | 43 | 1019.1 |
| 20260901065045 | 23 | 304 | 6.4 | 17.7 | 0.00 | 0.03 | 0.03 | 41 | 1019.0 |
| 20260901064544 | 23 | 256 | 6.4 | 30.6 | 0.00 | 0.03 | 0.03 | 41 | 1019.0 |
| 20260901064045 | 23 | 244 | 12.9 | 30.6 | 0.00 | 0.03 | 0.03 | 41 | 1019.1 |
| 20260901063543 | 23 | 260 | 9.7 | 27.4 | 0.00 | 0.03 | 0.03 | 41 | 1019.1 |
| 20260901063044 | 24 | 294 | 12.9 | 27.4 | 0.00 | 0.03 | 0.03 | 41 | 1019.1 |
| 20260901062545 | 24 | 234 | 11.3 | 22.5 | 0.00 | 0.03 | 0.03 | 41 | 1019.1 |
| 20260901062043 | 24 | 270 | 9.7 | 22.5 | 0.00 | 0.03 | 0.03 | 40 | 1019.1 |
| 20260901061543 | 24 | 219 | 11.3 | 19.3 | 0.00 | 0.03 | 0.03 | 40 | 1019.0 |
| 20260901061044 | 24 | 290 | 8.0 | 29.0 | 0.00 | 0.03 | 0.03 | 39 | 1019.1 |
| 20260901060543 | 24 | 279 | 12.9 | 29.0 | 0.00 | 0.03 | 0.03 | 39 | 1019.0 |
| 20260901060041 | 24 | 284 | 11.3 | 25.7 | 0.00 | 0.03 | 0.03 | 39 | 1019.1 |
| 20260901055541 | 24 | 250 | 14.5 | 27.4 | 0.00 | 0.03 | 0.03 | 39 | 1019.2 |
| 20260901055041 | 24 | 242 | 16.1 | 35.4 | 0.00 | 0.03 | 0.03 | 38 | 1019.3 |
| 20260901054544 | 24 | 261 | 16.1 | 33.8 | 0.00 | 0.03 | 0.03 | 38 | 1019.3 |
| 20260901054042 | 24 | 226 | 14.5 | 35.4 | 0.00 | 0.03 | 0.03 | 37 | 1019.4 |
| 20260901053543 | 24 | 298 | 19.3 | 35.4 | 0.00 | 0.03 | 0.03 | 37 | 1019.4 |
| 20260901053104 | 24 | 259 | 12.9 | 33.8 | 0.00 | 0.03 | 0.03 | 38 | 1019.4 |
| 20260901052544 | 24 | 268 | 17.7 | 30.6 | 0.00 | 0.03 | 0.03 | 38 | 1019.4 |
| 20260901052039 | 24 | 237 | 14.5 | 32.2 | 0.00 | 0.03 | 0.03 | 38 | 1019.4 |
| 20260901051559 | 24 | 235 | 17.7 | 32.2 | 0.00 | 0.03 | 0.03 | 37 | 1019.4 |
| 20260901051041 | 24 | 265 | 14.5 | 30.6 | 0.00 | 0.03 | 0.03 | 38 | 1019.4 |
| 20260901050538 | 24 | 336 | 11.3 | 22.5 | 0.00 | 0.03 | 0.03 | 39 | 1019.5 |
| 20260901050037 | 24 | 282 | 14.5 | 30.6 | 0.00 | 0.03 | 0.03 | 39 | 1019.6 |
| 20260901045537 | 24 | 253 | 11.3 | 25.7 | 0.00 | 0.03 | 0.03 | 39 | 1019.6 |
| 20260901045036 | 24 | 284 | 16.1 | 33.8 | 0.00 | 0.03 | 0.03 | 38 | 1019.6 |
| 20260901044548 | 24 | 294 | 19.3 | 33.8 | 0.00 | 0.03 | 0.03 | 38 | 1019.6 |
| 20260901044035 | 24 | 245 | 12.9 | 29.0 | 0.00 | 0.03 | 0.03 | 39 | 1019.6 |
| 20260901043536 | 23 | 280 | 16.1 | 37.0 | 0.00 | 0.03 | 0.03 | 39 | 1019.6 |
| 20260901043034 | 23 | 258 | 20.9 | 37.0 | 0.00 | 0.03 | 0.03 | 39 | 1019.8 |
| 20260901042532 | 24 | 255 | 17.7 | 30.6 | 0.00 | 0.03 | 0.03 | 38 | 1019.8 |
| 20260901042032 | 24 | 309 | 14.5 | 27.4 | 0.00 | 0.03 | 0.03 | 39 | 1019.8 |
| 20260901041533 | 24 | 285 | 14.5 | 27.4 | 0.00 | 0.03 | 0.03 | 40 | 1019.9 |
| 20260901041030 | 24 | 273 | 11.3 | 30.6 | 0.00 | 0.03 | 0.03 | 40 | 1019.9 |
| 20260901040530 | 24 | 259 | 14.5 | 30.6 | 0.00 | 0.03 | 0.03 | 40 | 1020.0 |
| 20260901040028 | 23 | 254 | 11.3 | 24.1 | 0.00 | 0.03 | 0.03 | 41 | 1020.1 |
| 20260901035531 | 23 | 304 | 11.3 | 27.4 | 0.00 | 0.03 | 0.03 | 40 | 1020.1 |
| 20260901035026 | 23 | 275 | 14.5 | 29.0 | 0.00 | 0.03 | 0.03 | 40 | 1020.2 |
| 20260901034529 | 23 | 250 | 16.1 | 29.0 | 0.00 | 0.03 | 0.03 | 40 | 1020.3 |
| 20260901034024 | 23 | 250 | 12.9 | 25.7 | 0.00 | 0.03 | 0.03 | 41 | 1020.3 |
| 20260901033523 | 23 | 227 | 12.9 | 25.7 | 0.00 | 0.03 | 0.03 | 41 | 1020.4 |
| 20260901033027 | 23 | 256 | 11.3 | 25.7 | 0.00 | 0.03 | 0.03 | 41 | 1020.6 |
| 20260901032521 | 23 | 269 | 11.3 | 25.7 | 0.00 | 0.03 | 0.03 | 41 | 1020.6 |
| 20260901032023 | 23 | 260 | 11.3 | 25.7 | 0.00 | 0.03 | 0.03 | 43 | 1020.8 |
| 20260901031523 | 23 | 297 | 11.3 | 25.7 | 0.00 | 0.03 | 0.03 | 43 | 1020.9 |
| 20260901031020 | 23 | 283 | 14.5 | 25.7 | 0.00 | 0.03 | 0.03 | 43 | 1020.9 |
| 20260901030517 | 23 | 245 | 16.1 | 24.1 | 0.00 | 0.03 | 0.03 | 43 | 1021.1 |
| 20260901030015 | 23 | 262 | 14.5 | 24.1 | 0.00 | 0.03 | 0.03 | 45 | 1021.3 |
| 20260901025513 | 23 | 280 | 11.3 | 24.1 | 0.00 | 0.03 | 0.03 | 46 | 1021.3 |
| 20260901025013 | 23 | 222 | 12.9 | 24.1 | 0.00 | 0.03 | 0.03 | 46 | 1021.4 |
| 20260901024511 | 22 | 272 | 9.7 | 27.4 | 0.00 | 0.03 | 0.03 | 47 | 1021.6 |
| 20260901024009 | 22 | 284 | 16.1 | 25.7 | 0.00 | 0.03 | 0.03 | 46 | 1021.7 |
| 20260901023508 | 22 | 251 | 12.9 | 25.7 | 0.00 | 0.03 | 0.03 | 46 | 1021.7 |
| 20260901023011 | 22 | 254 | 14.5 | 29.0 | 0.00 | 0.03 | 0.03 | 46 | 1021.9 |
| 20260901022506 | 22 | 276 | 14.5 | 29.0 | 0.00 | 0.03 | 0.03 | 46 | 1022.0 |
| 20260901022005 | 22 | 228 | 9.7 | 22.5 | 0.00 | 0.03 | 0.03 | 47 | 1022.1 |
| 20260901021510 | 22 | 275 | 11.3 | 32.2 | 0.00 | 0.03 | 0.03 | 48 | 1022.2 |
| 20260901021004 | 22 | 292 | 14.5 | 32.2 | 0.00 | 0.03 | 0.03 | 47 | 1022.4 |
| 20260901020503 | 22 | 277 | 8.0 | 27.4 | 0.00 | 0.03 | 0.03 | 49 | 1022.6 |
| 20260901020101 | 22 | 276 | 12.9 | 32.2 | 0.00 | 0.03 | 0.03 | 49 | 1022.7 |
| 20260901015558 | 22 | 284 | 14.5 | 32.2 | 0.00 | 0.03 | 0.03 | 49 | 1022.8 |
| 20260901015057 | 21 | 285 | 16.1 | 27.4 | 0.00 | 0.03 | 0.03 | 49 | 1023.0 |